Volver al catálogo

CZ-3B DEB

LostHEO
NORAD 42472·DEBRIS·🇨🇳 China

Lanzado Dec 19, 2011 desde Xichang Satellite Launch Center

Loading…

Próximos Pases (próximas 24 horas)

TLE

ObsoletoSource: Space-Track

Época: Feb 27, 2026, 20:08 UTC

1 42472U 11077AM  26058.83914333 -.00000250  00000-0  00000-0 0  9998
2 42472  25.8633 332.2967 7178161 216.3672  61.7467  1.79310469 73076

Sigue CZ-3B DEB en tiempo real con AllMySat

Download on the App Store